M I D A S
Marine Information and Data Acquisition System
Tripno 1102 of the Zeeleeuw from 2006-05-10 06:48:14 to 2006-05-10 14:04:03
Back to CruiseResearch ActivitiesStationsMapUnderway DataData graphs

EquipmentUnitsComments
TimeDGPSUTC
LatitudeDGPSDM.mWGS84
LongitudeDGPSDM.mWGS84
SpeedMeteo Stationm/sRelative wind speed
DirectionMeteo StationdegRelative wind direction
TemperatureMeteo Stationdeg CelciusAir temperature
PressureMeteo StationPaAtmospheric pressure
HumidityMeteo Station%Relative humidity
Missing or incorrect values are displayed as -999
Metereological data collected by the RV Zeeleeuw from 2006-05-10 06:44:12 to 2006-05-10 14:21:31
Time Latitude Longitude Speed Direction Temperature Pressure Humidity
2006-05-10 06:45 51°13.614 2°56.031 -999 155 10.2 101730 100
2006-05-10 06:46 51°13.642 2°55.922 -999 160 10.2 101740 100
2006-05-10 06:47 51°13.688 2°55.81 -999 159 10.2 101730 100
2006-05-10 06:48 51°13.714 2°55.724 -999 137 10.2 101730 100
2006-05-10 06:49 51°13.726 2°55.738 -999 172 10.2 101730 100
2006-05-10 06:50 51°13.712 2°55.722 -999 179 10.3 101740 100
2006-05-10 06:51 51°13.75 2°55.704 -999 343 10.4 101740 100
2006-05-10 06:52 51°13.852 2°55.624 -999 356 10.4 101730 100
2006-05-10 06:53 51°13.984 2°55.524 -999 359 10.5 101740 100
2006-05-10 06:54 51°14.123 2°55.418 -999 358 10.6 101730 100
2006-05-10 06:55 51°14.25 2°55.279 -999 347 10.8 101730 100
2006-05-10 06:56 51°14.352 2°55.091 -999 344 11 101730 100
2006-05-10 06:57 51°14.447 2°54.865 -999 346 11 101730 100
2006-05-10 06:58 51°14.523 2°54.559 -999 346 11 101730 100
2006-05-10 06:59 51°14.635 2°54.27 -999 347 10.9 101730 100
2006-05-10 07:00 51°14.755 2°53.991 -999 346 11 101730 100
2006-05-10 07:01 51°14.904 2°53.769 -999 346 11 101730 100
2006-05-10 07:02 51°15.057 2°53.535 -999 347 11 101740 100
2006-05-10 07:03 51°15.214 2°53.316 -999 344 11.1 101730 100
2006-05-10 07:04 51°15.371 2°53.097 -999 343 11.1 101730 100
2006-05-10 07:05 51°15.518 2°52.862 -999 344 11.2 101730 100
2006-05-10 07:06 51°15.6 2°52.546 -999 350 11.3 101730 100
2006-05-10 07:07 51°15.632 2°52.189 -999 353 11.4 101730 100
2006-05-10 07:08 51°15.671 2°51.837 -999 353 11.5 101730 100
2006-05-10 07:09 51°15.707 2°51.492 -999 354 11.5 101730 100
2006-05-10 07:10 51°15.745 2°51.142 -999 354 11.6 101730 100
2006-05-10 07:11 51°15.782 2°50.789 -999 360 11.7 101730 100
2006-05-10 07:12 51°15.818 2°50.451 -999 6 11.7 101740 100
2006-05-10 07:13 51°15.852 2°50.115 -999 10 11.7 101730 100
2006-05-10 07:14 51°15.885 2°49.785 -999 8 11.6 101730 100
2006-05-10 07:15 51°15.919 2°49.443 -999 6 11.6 101730 100
2006-05-10 07:16 51°15.954 2°49.092 -999 7 11.5 101740 100
2006-05-10 07:17 51°15.988 2°48.751 -999 8 11.5 101740 100
2006-05-10 07:18 51°16.023 2°48.401 -999 8 11.5 101740 100
2006-05-10 07:19 51°16.028 2°48.042 -999 6 11.4 101740 100
2006-05-10 07:20 51°16.068 2°47.7 -999 10 11.4 101740 100
2006-05-10 07:21 51°16.121 2°47.359 -999 10 11.4 101740 100
2006-05-10 07:22 51°16.172 2°47.02 -999 9 11.5 101750 100
2006-05-10 07:23 51°16.222 2°46.683 -999 11 11.5 101750 100
2006-05-10 07:24 51°16.27 2°46.347 -999 11 11.5 101750 100
2006-05-10 07:25 51°16.319 2°46.02 -999 14 11.5 101740 100
2006-05-10 07:26 51°16.381 2°45.686 -999 11 11.5 101750 100
2006-05-10 07:27 51°16.464 2°45.372 -999 7 11.5 101740 100
2006-05-10 07:28 51°16.573 2°45.082 -999 5 11.4 101750 100
2006-05-10 07:29 51°16.683 2°44.794 -999 5 11.4 101750 100
2006-05-10 07:30 51°16.794 2°44.501 -999 7 11.4 101740 100
2006-05-10 07:31 51°16.902 2°44.202 -999 6 11.4 101740 100
2006-05-10 07:32 51°17.01 2°43.906 -999 6 11.4 101740 100
2006-05-10 07:33 51°17.131 2°43.622 -999 3 11.3 101750 100
2006-05-10 07:34 51°17.273 2°43.361 -999 4 11.3 101740 100
2006-05-10 07:35 51°17.411 2°43.112 -999 8 11.3 101750 100
2006-05-10 07:36 51°17.553 2°42.863 -999 5 11.3 101750 100
2006-05-10 07:37 51°17.7 2°42.602 -999 4 11.3 101750 100
2006-05-10 07:38 51°17.844 2°42.344 -999 4 11.3 101740 100
2006-05-10 07:39 51°17.98 2°42.08 -999 7 11.3 101740 100
2006-05-10 07:40 51°18.111 2°41.792 -999 6 11.2 101750 100
2006-05-10 07:41 51°18.24 2°41.508 -999 5 11.2 101740 100
2006-05-10 07:42 51°18.366 2°41.227 -999 5 11.2 101750 100
2006-05-10 07:43 51°18.495 2°40.946 -999 5 11.2 101740 100
2006-05-10 07:44 51°18.624 2°40.67 -999 7 11.2 101750 100
2006-05-10 07:45 51°18.751 2°40.398 -999 8 11.1 101750 100
2006-05-10 07:46 51°18.883 2°40.12 -999 9 11.1 101760 100
2006-05-10 07:47 51°18.987 2°39.828 -999 12 11.1 101750 100
2006-05-10 07:48 51°19.089 2°39.516 -999 10 11.1 101750 100
2006-05-10 07:49 51°19.187 2°39.208 -999 9 11.1 101750 100
2006-05-10 07:50 51°19.284 2°38.9 -999 12 11.1 101760 100
2006-05-10 07:51 51°19.38 2°38.592 -999 10 11 101760 100
2006-05-10 07:52 51°19.47 2°38.267 -999 11 11 101760 100
2006-05-10 07:53 51°19.552 2°37.951 -999 10 11 101750 100
2006-05-10 07:54 51°19.632 2°37.625 -999 12 11 101760 100
2006-05-10 07:55 51°19.714 2°37.306 -999 13 10.9 101760 100
2006-05-10 07:56 51°19.796 2°36.99 -999 10 11 101760 100
2006-05-10 07:57 51°19.878 2°36.674 -999 13 10.9 101760 99
2006-05-10 07:58 51°19.96 2°36.363 -999 13 10.9 101760 99
2006-05-10 07:59 51°20.043 2°36.047 -999 12 10.9 101760 99
2006-05-10 08:00 51°20.126 2°35.73 -999 12 10.9 101760 99
2006-05-10 08:01 51°20.21 2°35.415 -999 15 10.9 101770 99
2006-05-10 08:02 51°20.297 2°35.091 -999 15 10.9 101760 99
2006-05-10 08:03 51°20.389 2°34.775 -999 7 10.9 101760 99
2006-05-10 08:04 51°20.508 2°34.482 -999 8 10.9 101760 99
2006-05-10 08:05 51°20.638 2°34.212 -999 4 10.8 101760 99
2006-05-10 08:06 51°20.786 2°33.957 -999 5 10.8 101760 99
2006-05-10 08:07 51°20.937 2°33.704 -999 6 10.8 101770 99
2006-05-10 08:08 51°21.09 2°33.443 -999 7 10.8 101770 99
2006-05-10 08:09 51°21.237 2°33.197 -999 5 10.7 101770 99
2006-05-10 08:10 51°21.385 2°32.95 -999 4 10.7 101770 99
2006-05-10 08:11 51°21.527 2°32.714 -999 2 10.7 101770 99
2006-05-10 08:12 51°21.675 2°32.474 -999 5 10.7 101770 99
2006-05-10 08:13 51°21.824 2°32.24 -999 359 10.7 101770 99
2006-05-10 08:14 51°22.008 2°32.092 -999 357 10.7 101770 99
2006-05-10 08:15 51°22.198 2°31.942 -999 355 10.7 101760 99
2006-05-10 08:16 51°22.387 2°31.791 -999 358 10.7 101760 99
2006-05-10 08:17 51°22.581 2°31.635 -999 358 10.7 101760 99
2006-05-10 08:18 51°22.77 2°31.488 -999 358 10.7 101760 99
2006-05-10 08:19 51°22.961 2°31.336 -999 356 10.7 101760 99
2006-05-10 08:20 51°23.156 2°31.184 -999 357 10.7 101750 99
2006-05-10 08:21 51°23.342 2°31.038 -999 357 10.7 101750 99
2006-05-10 08:22 51°23.533 2°30.89 -999 359 10.7 101760 99
2006-05-10 08:23 51°23.725 2°30.745 -999 359 10.7 101750 99
2006-05-10 08:24 51°23.917 2°30.602 -999 358 10.6 101770 99
2006-05-10 08:25 51°24.113 2°30.457 -999 1 10.6 101760 99
2006-05-10 08:26 51°24.305 2°30.317 -999 359 10.6 101760 99
2006-05-10 08:27 51°24.493 2°30.176 -999 1 10.6 101760 99
2006-05-10 08:28 51°24.683 2°30.028 -999 359 10.6 101760 99
2006-05-10 08:29 51°24.874 2°29.883 -999 357 10.6 101760 99
2006-05-10 08:30 51°25.065 2°29.731 -999 359 10.6 101760 99
2006-05-10 08:31 51°25.255 2°29.584 -999 359 10.6 101760 99
2006-05-10 08:32 51°25.445 2°29.439 -999 359 10.6 101760 99
2006-05-10 08:33 51°25.632 2°29.305 -999 3 10.6 101760 99
2006-05-10 08:34 51°25.826 2°29.18 -999 5 10.6 101770 99
2006-05-10 08:35 51°26.018 2°29.059 -999 6 10.6 101770 99
2006-05-10 08:36 51°26.215 2°28.929 -999 6 10.6 101780 99
2006-05-10 08:37 51°26.409 2°28.798 -999 6 10.6 101770 99
2006-05-10 08:38 51°26.61 2°28.658 -999 6 10.6 101760 99
2006-05-10 08:39 51°26.806 2°28.521 -999 3 10.6 101760 99
2006-05-10 08:40 51°27.005 2°28.377 -999 5 10.6 101770 99
2006-05-10 08:41 51°27.203 2°28.235 -999 4 10.7 101760 99
2006-05-10 08:42 51°27.395 2°28.095 -999 6 10.6 101770 99
2006-05-10 08:43 51°27.589 2°27.952 -999 -999 10.6 101780 99
2006-05-10 08:44 51°27.786 2°27.844 -999 7 10.6 101770 99
2006-05-10 08:45 51°27.971 2°27.683 -999 11 10.6 101780 99
2006-05-10 08:46 51°28.121 2°27.465 -999 12 10.6 101780 99
2006-05-10 08:47 51°28.243 2°27.195 -999 13 10.6 101780 99
2006-05-10 08:48 51°28.396 2°26.975 -999 359 10.7 101780 99
2006-05-10 08:49 51°28.587 2°26.855 -999 357 10.6 101760 99
2006-05-10 08:50 51°28.703 2°26.846 -999 336 10.6 101780 99
2006-05-10 08:51 51°28.767 2°26.924 -999 317 10.6 101790 99
2006-05-10 08:52 51°28.8 2°26.996 -999 297 10.7 101790 99
2006-05-10 08:53 51°28.818 2°27.051 -999 293 10.7 101790 99
2006-05-10 08:54 51°28.833 2°27.093 -999 301 10.8 101780 99
2006-05-10 08:55 51°28.852 2°27.122 -999 322 10.8 101780 99
2006-05-10 08:56 51°28.872 2°27.137 -999 346 10.8 101780 99
2006-05-10 08:57 51°28.889 2°27.143 -999 1 10.8 101780 99
2006-05-10 08:58 51°28.899 2°27.142 -999 23 10.8 101790 98
2006-05-10 08:59 51°28.904 2°27.139 -999 48 10.8 101780 98
2006-05-10 09:00 51°28.897 2°27.111 -999 92 10.7 101780 98
2006-05-10 09:01 51°28.851 2°27.058 -999 84 10.6 101780 98
2006-05-10 09:02 51°28.819 2°27.028 -999 117 10.5 101780 98
2006-05-10 09:03 51°28.813 2°27.037 -999 118 10.5 101780 98
2006-05-10 09:04 51°28.808 2°27.047 -999 112 10.6 101780 98
2006-05-10 09:05 51°28.802 2°27.057 -999 110 10.6 101780 98
2006-05-10 09:06 51°28.797 2°27.066 -999 113 10.6 101790 98
2006-05-10 09:07 51°28.792 2°27.077 -999 110 10.6 101790 98
2006-05-10 09:08 51°28.788 2°27.088 -999 108 10.6 101790 98
2006-05-10 09:09 51°28.786 2°27.098 -999 103 10.6 101790 98
2006-05-10 09:10 51°28.784 2°27.108 -999 93 10.6 101790 98
2006-05-10 09:11 51°28.783 2°27.116 -999 86 10.6 101780 98
2006-05-10 09:12 51°28.781 2°27.125 -999 79 10.6 101790 98
2006-05-10 09:13 51°28.779 2°27.134 -999 80 10.5 101790 98
2006-05-10 09:14 51°28.778 2°27.142 -999 75 10.5 101790 98
2006-05-10 09:15 51°28.778 2°27.151 -999 67 10.5 101800 98
2006-05-10 09:16 51°28.78 2°27.112 -999 49 10.5 101790 98
2006-05-10 09:17 51°28.721 2°27.025 -999 93 10.4 101790 99
2006-05-10 09:18 51°28.67 2°27.017 -999 136 10.4 101790 99
2006-05-10 09:19 51°28.632 2°27.027 -999 149 10.4 101780 99
2006-05-10 09:20 51°28.562 2°27.098 -999 5 10.5 101780 99
2006-05-10 09:21 51°28.412 2°27.18 -999 29 10.6 101790 99
2006-05-10 09:22 51°28.213 2°27.242 -999 26 10.6 101780 99
2006-05-10 09:23 51°28.009 2°27.312 -999 31 10.6 101780 99
2006-05-10 09:24 51°27.801 2°27.391 -999 36 10.6 101780 99
2006-05-10 09:25 51°27.595 2°27.473 -999 32 10.6 101780 99
2006-05-10 09:26 51°27.39 2°27.548 -999 31 10.6 101780 99
2006-05-10 09:27 51°27.188 2°27.627 -999 29 10.6 101780 99
2006-05-10 09:28 51°26.986 2°27.697 -999 29 10.6 101780 99
2006-05-10 09:29 51°26.783 2°27.771 -999 23 10.8 101780 99
2006-05-10 09:30 51°26.581 2°27.849 -999 23 10.7 101780 99
2006-05-10 09:31 51°26.38 2°27.933 -999 18 10.7 101780 99
2006-05-10 09:32 51°26.18 2°28.012 -999 24 10.7 101780 99
2006-05-10 09:33 51°25.979 2°28.095 -999 29 10.7 101780 99
2006-05-10 09:34 51°25.779 2°28.18 -999 29 10.7 101770 99
2006-05-10 09:35 51°25.58 2°28.249 -999 31 10.7 101770 99
2006-05-10 09:36 51°25.379 2°28.329 -999 29 10.7 101770 99
2006-05-10 09:37 51°25.176 2°28.412 -999 34 10.6 101770 99
2006-05-10 09:38 51°24.97 2°28.487 -999 34 10.6 101770 99
2006-05-10 09:39 51°24.759 2°28.556 -999 37 10.6 101770 99
2006-05-10 09:40 51°24.555 2°28.619 -999 36 10.6 101770 99
2006-05-10 09:41 51°24.355 2°28.637 -999 48 10.6 101770 99
2006-05-10 09:42 51°24.15 2°28.639 -999 39 10.5 101770 99
2006-05-10 09:43 51°23.945 2°28.63 -999 46 10.5 101770 99
2006-05-10 09:44 51°23.739 2°28.622 -999 38 10.5 101770 99
2006-05-10 09:45 51°23.537 2°28.636 -999 43 10.5 101770 99
2006-05-10 09:46 51°23.331 2°28.656 -999 38 10.5 101770 99
2006-05-10 09:47 51°23.131 2°28.675 -999 38 10.6 101780 99
2006-05-10 09:48 51°22.932 2°28.689 -999 36 10.6 101780 99
2006-05-10 09:49 51°22.737 2°28.755 -999 24 10.7 101770 99
2006-05-10 09:50 51°22.539 2°28.854 -999 21 10.8 101770 99
2006-05-10 09:51 51°22.349 2°28.967 -999 6 10.9 101780 99
2006-05-10 09:52 51°22.161 2°29.101 -999 346 11 101780 99
2006-05-10 09:53 51°21.974 2°29.229 -999 350 11.1 101780 99
2006-05-10 09:54 51°21.788 2°29.36 -999 352 11.2 101780 99
2006-05-10 09:55 51°21.595 2°29.491 -999 354 11.2 101780 99
2006-05-10 09:56 51°21.402 2°29.536 -999 22 11.3 101780 99
2006-05-10 09:57 51°21.203 2°29.586 -999 21 11.3 101780 98
2006-05-10 09:58 51°20.999 2°29.656 -999 7 11.3 101780 98
2006-05-10 09:59 51°20.803 2°29.733 -999 1 11.4 101780 98
2006-05-10 10:00 51°20.604 2°29.8 -999 12 11.5 101780 98
2006-05-10 10:01 51°20.412 2°29.85 -999 15 11.6 101780 98
2006-05-10 10:02 51°20.232 2°29.901 -999 10 11.6 101790 97
2006-05-10 10:03 51°20.148 2°29.939 -999 135 11.8 101780 97
2006-05-10 10:04 51°20.115 2°29.951 -999 134 11.7 101780 96
2006-05-10 10:05 51°20.108 2°29.969 -999 130 11.5 101780 96
2006-05-10 10:06 51°20.096 2°29.986 -999 144 11.4 101790 96
2006-05-10 10:07 51°20.079 2°30.018 -999 174 11.3 101780 96
2006-05-10 10:08 51°20.062 2°30.073 -999 218 11.3 101780 96
2006-05-10 10:09 51°20.048 2°30.141 -999 242 11.2 101780 96
2006-05-10 10:10 51°20.042 2°30.215 -999 260 11.3 101780 96
2006-05-10 10:11 51°20.043 2°30.29 -999 267 11.3 101770 96
2006-05-10 10:12 51°20.047 2°30.352 -999 274 11.3 101770 96
2006-05-10 10:13 51°20.051 2°30.372 -999 254 11.4 101770 96
2006-05-10 10:14 51°20.058 2°30.394 -999 252 11.4 101770 96
2006-05-10 10:15 51°20.064 2°30.42 -999 237 11.3 101770 96
2006-05-10 10:16 51°20.07 2°30.453 -999 245 11.3 101770 96
2006-05-10 10:17 51°20.075 2°30.489 -999 248 11.3 101770 96
2006-05-10 10:18 51°20.079 2°30.528 -999 246 11.4 101770 96
2006-05-10 10:19 51°20.082 2°30.575 -999 253 11.4 101770 96
2006-05-10 10:20 51°20.083 2°30.621 -999 255 11.4 101770 96
2006-05-10 10:21 51°20.083 2°30.671 -999 255 11.4 101770 96
2006-05-10 10:22 51°20.085 2°30.72 -999 259 11.5 101760 96
2006-05-10 10:23 51°20.086 2°30.771 -999 257 11.3 101760 96
2006-05-10 10:24 51°20.088 2°30.821 -999 259 11.4 101770 96
2006-05-10 10:25 51°20.091 2°30.871 -999 265 11.4 101770 96
2006-05-10 10:26 51°20.094 2°30.921 -999 265 11.4 101770 96
2006-05-10 10:27 51°20.097 2°30.97 -999 274 11.4 101770 96
2006-05-10 10:28 51°20.1 2°31.03 -999 282 11.4 101770 96
2006-05-10 10:29 51°20.075 2°31.171 -999 266 11.4 101760 96
2006-05-10 10:30 51°19.966 2°31.288 -999 271 11.5 101770 96
2006-05-10 10:31 51°19.83 2°31.465 -999 41 11.6 101770 96
2006-05-10 10:32 51°19.671 2°31.707 -999 42 11.6 101770 95
2006-05-10 10:33 51°19.522 2°31.949 -999 323 11.6 101770 95
2006-05-10 10:34 51°19.37 2°32.189 -999 328 11.7 101770 95
2006-05-10 10:35 51°19.219 2°32.441 -999 322 11.7 101760 95
2006-05-10 10:36 51°19.067 2°32.684 -999 330 11.7 101770 95
2006-05-10 10:37 51°18.921 2°32.926 -999 333 11.8 101760 95
2006-05-10 10:38 51°18.77 2°33.176 -999 325 11.8 101760 95
2006-05-10 10:39 51°18.621 2°33.421 -999 324 11.8 101770 95
2006-05-10 10:40 51°18.47 2°33.667 -999 326 11.8 101760 95
2006-05-10 10:41 51°18.319 2°33.911 -999 327 11.8 101760 94
2006-05-10 10:42 51°18.162 2°34.162 -999 326 11.9 101760 94
2006-05-10 10:43 51°18.011 2°34.411 -999 325 11.9 101770 94
2006-05-10 10:44 51°17.859 2°34.668 -999 330 11.9 101760 94
2006-05-10 10:45 51°17.706 2°34.926 -999 330 11.9 101760 94
2006-05-10 10:46 51°17.548 2°35.182 -999 334 11.9 101760 94
2006-05-10 10:47 51°17.387 2°35.434 -999 331 12 101760 94
2006-05-10 10:48 51°17.228 2°35.688 -999 336 12 101760 94
2006-05-10 10:49 51°17.076 2°35.952 -999 328 12 101760 94
2006-05-10 10:50 51°16.928 2°36.219 -999 327 11.9 101760 94
2006-05-10 10:51 51°16.789 2°36.491 -999 329 11.9 101760 94
2006-05-10 10:52 51°16.678 2°36.718 -999 302 11.9 101770 94
2006-05-10 10:53 51°16.632 2°36.823 -999 259 12 101770 94
2006-05-10 10:54 51°16.637 2°36.881 -999 288 12 101780 94
2006-05-10 10:55 51°16.653 2°36.945 -999 42 12 101770 94
2006-05-10 10:56 51°16.679 2°37.013 -999 345 12.1 101770 94
2006-05-10 10:57 51°16.714 2°37.067 -999 17 12.1 101780 94
2006-05-10 10:58 51°16.751 2°37.1 -999 56 12 101780 94
2006-05-10 10:59 51°16.783 2°37.11 -999 101 11.9 101770 94
2006-05-10 11:00 51°16.801 2°37.104 -999 141 11.9 101780 95
2006-05-10 11:01 51°16.794 2°37.102 -999 186 11.9 101780 95
2006-05-10 11:02 51°16.738 2°37.065 -999 104 11.9 101790 95
2006-05-10 11:03 51°16.685 2°36.953 -999 77 11.9 101780 95
2006-05-10 11:04 51°16.626 2°36.844 -999 84 11.8 101780 95
2006-05-10 11:05 51°16.627 2°36.809 -999 103 11.8 101780 95
2006-05-10 11:06 51°16.649 2°36.823 -999 78 11.9 101780 95
2006-05-10 11:07 51°16.672 2°36.844 -999 66 11.8 101780 95
2006-05-10 11:08 51°16.695 2°36.869 -999 62 11.8 101780 95
2006-05-10 11:09 51°16.717 2°36.895 -999 52 11.7 101780 95
2006-05-10 11:10 51°16.739 2°36.922 -999 56 11.7 101770 96
2006-05-10 11:11 51°16.76 2°36.951 -999 72 11.7 101780 96
2006-05-10 11:12 51°16.779 2°36.979 -999 69 11.7 101770 96
2006-05-10 11:13 51°16.799 2°37.007 -999 63 11.7 101770 96
2006-05-10 11:14 51°16.817 2°37.037 -999 79 11.7 101770 96
2006-05-10 11:15 51°16.834 2°37.067 -999 92 11.7 101770 96
2006-05-10 11:16 51°16.851 2°37.097 -999 99 11.8 101770 96
2006-05-10 11:17 51°16.867 2°37.127 -999 110 11.8 101770 96
2006-05-10 11:18 51°16.883 2°37.157 -999 117 11.9 101780 96
2006-05-10 11:19 51°16.897 2°37.175 -999 121 11.9 101780 96
2006-05-10 11:20 51°16.904 2°37.09 -999 44 11.9 101770 96
2006-05-10 11:21 51°17.029 2°37.04 -999 1 11.9 101770 96
2006-05-10 11:22 51°17.125 2°37.272 -999 342 11.9 101770 96
2006-05-10 11:23 51°17.128 2°37.578 -999 327 12 101760 96
2006-05-10 11:24 51°17.007 2°37.72 -999 2 12 101770 96
2006-05-10 11:25 51°16.841 2°37.692 -999 10 12.2 101770 95
2006-05-10 11:26 51°16.658 2°37.635 -999 5 12.2 101770 95
2006-05-10 11:27 51°16.468 2°37.575 -999 7 12.3 101770 95
2006-05-10 11:28 51°16.272 2°37.545 -999 10 12.3 101770 94
2006-05-10 11:29 51°16.075 2°37.515 -999 7 12.3 101770 94
2006-05-10 11:30 51°15.876 2°37.523 -999 2 12.3 101770 94
2006-05-10 11:31 51°15.675 2°37.584 -999 1 12.3 101770 93
2006-05-10 11:32 51°15.473 2°37.692 -999 345 12.4 101770 93
2006-05-10 11:33 51°15.283 2°37.83 -999 346 12.5 101770 93
2006-05-10 11:34 51°15.093 2°37.993 -999 353 12.5 101770 92
2006-05-10 11:35 51°14.902 2°38.164 -999 350 12.6 101770 92
2006-05-10 11:36 51°14.715 2°38.334 -999 349 12.6 101760 92
2006-05-10 11:37 51°14.528 2°38.501 -999 353 12.6 101770 91
2006-05-10 11:38 51°14.34 2°38.656 -999 353 12.6 101760 91
2006-05-10 11:39 51°14.15 2°38.804 -999 352 12.6 101760 91
2006-05-10 11:40 51°13.956 2°38.882 -999 11 12.6 101760 91
2006-05-10 11:41 51°13.75 2°38.81 -999 14 12.6 101760 91
2006-05-10 11:42 51°13.563 2°38.694 -999 21 12.6 101760 91
2006-05-10 11:43 51°13.368 2°38.583 -999 20 12.5 101760 91
2006-05-10 11:44 51°13.181 2°38.456 -999 22 12.5 101760 92
2006-05-10 11:45 51°12.997 2°38.32 -999 18 12.4 101760 92
2006-05-10 11:46 51°12.811 2°38.195 -999 17 12.4 101760 92
2006-05-10 11:47 51°12.62 2°38.085 -999 16 12.3 101760 92
2006-05-10 11:48 51°12.43 2°37.975 -999 15 12.3 101760 93
2006-05-10 11:49 51°12.239 2°37.866 -999 12 12.3 101760 93
2006-05-10 11:50 51°12.054 2°37.743 -999 10 12.3 101760 93
2006-05-10 11:51 51°11.869 2°37.614 -999 11 12.3 101760 93
2006-05-10 11:52 51°11.686 2°37.48 -999 11 12.2 101760 93
2006-05-10 11:53 51°11.506 2°37.354 -999 10 12.2 101760 94
2006-05-10 11:54 51°11.323 2°37.21 -999 8 12.2 101760 94
2006-05-10 11:55 51°11.142 2°37.079 -999 11 12.2 101760 94
2006-05-10 11:56 51°10.959 2°36.958 -999 11 12.2 101770 94
2006-05-10 11:57 51°10.768 2°36.863 -999 12 12.2 101760 94
2006-05-10 11:58 51°10.574 2°36.795 -999 15 12.2 101760 94
2006-05-10 11:59 51°10.388 2°36.899 -999 5 12.2 101770 94
2006-05-10 12:00 51°10.299 2°37.218 -999 358 12.1 101760 94
2006-05-10 12:01 51°10.313 2°37.582 -999 359 12.1 101760 94
2006-05-10 12:02 51°10.351 2°37.944 -999 354 12.2 101750 95
2006-05-10 12:03 51°10.398 2°38.304 -999 356 12.2 101750 95
2006-05-10 12:04 51°10.449 2°38.665 -999 -999 12.2 101760 94
2006-05-10 12:05 51°10.505 2°39.026 -999 355 12.2 101750 94
2006-05-10 12:06 51°10.564 2°39.388 -999 350 12.3 101760 95
2006-05-10 12:07 51°10.62 2°39.75 -999 348 12.4 101750 95
2006-05-10 12:08 51°10.688 2°40.105 -999 344 12.4 101750 94
2006-05-10 12:09 51°10.744 2°40.464 -999 341 12.5 101740 94
2006-05-10 12:10 51°10.79 2°40.83 -999 339 12.5 101750 94
2006-05-10 12:11 51°10.829 2°41.195 -999 339 12.6 101750 94
2006-05-10 12:12 51°10.874 2°41.55 -999 341 12.6 101750 93
2006-05-10 12:13 51°10.923 2°41.766 -999 330 12.7 101760 93
2006-05-10 12:14 51°10.963 2°41.868 -999 308 12.7 101760 93
2006-05-10 12:15 51°10.977 2°41.92 -999 280 12.7 101760 93
2006-05-10 12:16 51°10.986 2°41.971 -999 282 12.7 101760 93
2006-05-10 12:17 51°10.995 2°42.018 -999 285 12.8 101760 93
2006-05-10 12:18 51°11.003 2°42.062 -999 285 12.8 101750 92
2006-05-10 12:19 51°11.011 2°42.105 -999 299 12.8 101760 92
2006-05-10 12:20 51°11.024 2°42.149 -999 317 12.9 101750 92
2006-05-10 12:21 51°11.041 2°42.191 -999 334 12.9 101760 92
2006-05-10 12:22 51°11.061 2°42.226 -999 355 13 101750 92
2006-05-10 12:23 51°11.057 2°42.256 -999 344 13.1 101750 92
2006-05-10 12:24 51°11.047 2°42.285 -999 6 13.2 101750 92
2006-05-10 12:25 51°11.047 2°42.313 -999 357 13.3 101750 91
2006-05-10 12:26 51°11.047 2°42.34 -999 351 13.4 101750 91
2006-05-10 12:27 51°11.047 2°42.366 -999 351 13.5 101750 90
2006-05-10 12:28 51°11.046 2°42.392 -999 341 13.5 101750 89
2006-05-10 12:29 51°11.045 2°42.417 -999 327 13.5 101750 88
2006-05-10 12:30 51°11.045 2°42.442 -999 305 13.5 101750 88
2006-05-10 12:31 51°11.045 2°42.466 -999 294 13.6 101750 88
2006-05-10 12:32 51°11.046 2°42.489 -999 285 13.7 101750 87
2006-05-10 12:33 51°11.049 2°42.514 -999 278 13.7 101750 86
2006-05-10 12:34 51°11.052 2°42.54 -999 273 13.7 101750 86
2006-05-10 12:35 51°11.055 2°42.566 -999 268 13.6 101750 86
2006-05-10 12:36 51°11.058 2°42.594 -999 262 13.5 101750 86
2006-05-10 12:37 51°11.06 2°42.623 -999 263 13.5 101750 86
2006-05-10 12:38 51°11.063 2°42.66 -999 277 13.4 101750 86
2006-05-10 12:39 51°11.089 2°42.759 -999 346 13.4 101750 86
2006-05-10 12:40 51°11.224 2°42.843 -999 359 13.2 101740 87
2006-05-10 12:41 51°11.424 2°42.92 -999 359 13.1 101740 87
2006-05-10 12:42 51°11.637 2°43.047 -999 357 13 101740 88
2006-05-10 12:43 51°11.835 2°43.218 -999 356 12.9 101740 89
2006-05-10 12:44 51°12.032 2°43.392 -999 357 12.9 101740 90
2006-05-10 12:45 51°12.221 2°43.59 -999 355 12.8 101740 90
2006-05-10 12:46 51°12.4 2°43.808 -999 357 12.8 101740 91
2006-05-10 12:47 51°12.574 2°44.036 -999 354 12.8 101730 91
2006-05-10 12:48 51°12.744 2°44.272 -999 352 12.8 101730 91
2006-05-10 12:49 51°12.91 2°44.511 -999 353 12.9 101740 91
2006-05-10 12:50 51°13.078 2°44.747 -999 351 12.9 101730 91
2006-05-10 12:51 51°13.247 2°44.985 -999 350 12.9 101730 92
2006-05-10 12:52 51°13.414 2°45.225 -999 350 13 101730 92
2006-05-10 12:53 51°13.58 2°45.469 -999 354 13 101730 91
2006-05-10 12:54 51°13.747 2°45.709 -999 352 13 101740 91
2006-05-10 12:55 51°13.915 2°45.952 -999 353 13 101740 91
2006-05-10 12:56 51°14.081 2°46.19 -999 352 13 101740 91
2006-05-10 12:57 51°14.248 2°46.422 -999 352 13 101730 91
2006-05-10 12:58 51°14.417 2°46.646 -999 356 13 101740 91
2006-05-10 12:59 51°14.594 2°46.858 -999 356 12.9 101740 91
2006-05-10 13:00 51°14.767 2°47.071 -999 356 12.9 101740 92
2006-05-10 13:01 51°14.942 2°47.294 -999 358 12.8 101740 92
2006-05-10 13:02 51°15.117 2°47.516 -999 359 12.8 101740 92
2006-05-10 13:03 51°15.295 2°47.739 -999 359 12.8 101740 92
2006-05-10 13:04 51°15.471 2°47.959 -999 357 12.8 101740 93
2006-05-10 13:05 51°15.649 2°48.174 -999 1 12.7 101740 93
2006-05-10 13:06 51°15.822 2°48.399 -999 3 12.7 101740 93
2006-05-10 13:07 51°15.992 2°48.618 -999 359 12.7 101750 93
2006-05-10 13:08 51°16.154 2°48.889 -999 2 12.7 101740 94
2006-05-10 13:09 51°16.318 2°49.145 -999 360 12.6 101740 94
2006-05-10 13:10 51°16.478 2°49.402 -999 358 12.6 101740 94
2006-05-10 13:11 51°16.609 2°49.684 -999 350 12.7 101740 95
2006-05-10 13:12 51°16.729 2°49.997 -999 355 12.7 101740 95
2006-05-10 13:13 51°16.893 2°50.22 -999 4 12.7 101740 95
2006-05-10 13:14 51°17.104 2°50.312 -999 9 12.7 101740 95
2006-05-10 13:15 51°17.319 2°50.41 -999 10 12.6 101750 95
2006-05-10 13:16 51°17.538 2°50.51 -999 7 12.6 101740 95
2006-05-10 13:17 51°17.75 2°50.625 -999 6 12.6 101740 95
2006-05-10 13:18 51°17.956 2°50.738 -999 7 12.7 101740 95
2006-05-10 13:19 51°18.105 2°50.832 -999 9 12.7 101750 95
2006-05-10 13:20 51°18.22 2°50.914 -999 5 12.7 101750 95
2006-05-10 13:21 51°18.26 2°50.955 -999 324 12.8 101750 95
2006-05-10 13:22 51°18.27 2°50.97 -999 316 12.9 101750 96
2006-05-10 13:23 51°18.282 2°51.008 -999 317 13 101750 95
2006-05-10 13:24 51°18.298 2°51.052 -999 329 13.1 101750 95
2006-05-10 13:25 51°18.319 2°51.092 -999 348 13.2 101750 95
2006-05-10 13:26 51°18.345 2°51.129 -999 354 13.2 101750 94
2006-05-10 13:27 51°18.372 2°51.164 -999 356 13.2 101750 94
2006-05-10 13:28 51°18.401 2°51.197 -999 2 13.2 101750 94
2006-05-10 13:29 51°18.43 2°51.231 -999 359 13.2 101750 93
2006-05-10 13:30 51°18.438 2°51.24 -999 345 13.3 101750 93
2006-05-10 13:31 51°18.438 2°51.238 -999 333 13.4 101750 93
2006-05-10 13:32 51°18.439 2°51.238 -999 332 13.4 101750 93
2006-05-10 13:33 51°18.44 2°51.239 -999 326 13.5 101750 93
2006-05-10 13:34 51°18.442 2°51.239 -999 312 13.6 101750 92
2006-05-10 13:35 51°18.446 2°51.241 -999 301 13.7 101740 92
2006-05-10 13:36 51°18.449 2°51.245 -999 293 13.8 101750 92
2006-05-10 13:37 51°18.453 2°51.25 -999 286 13.8 101750 91
2006-05-10 13:38 51°18.458 2°51.258 -999 280 13.8 101750 90
2006-05-10 13:39 51°18.461 2°51.269 -999 280 13.8 101750 90
2006-05-10 13:40 51°18.444 2°51.312 -999 291 13.7 101740 90
2006-05-10 13:41 51°18.314 2°51.451 -999 337 13.7 101740 89
2006-05-10 13:42 51°18.132 2°51.618 -999 340 13.6 101740 90
2006-05-10 13:43 51°17.948 2°51.785 -999 344 13.6 101740 90
2006-05-10 13:44 51°17.758 2°51.938 -999 341 13.6 101740 90
2006-05-10 13:45 51°17.573 2°52.084 -999 347 13.6 101740 90
2006-05-10 13:46 51°17.378 2°52.208 -999 345 13.6 101740 90
2006-05-10 13:47 51°17.179 2°52.331 -999 347 13.6 101740 90
2006-05-10 13:48 51°16.986 2°52.47 -999 344 13.6 101740 90
2006-05-10 13:49 51°16.788 2°52.606 -999 344 13.7 101740 90
2006-05-10 13:50 51°16.603 2°52.756 -999 347 13.7 101730 90
2006-05-10 13:51 51°16.411 2°52.893 -999 344 13.7 101730 90
2006-05-10 13:52 51°16.215 2°53.029 -999 345 13.8 101730 90
2006-05-10 13:53 51°16.017 2°53.153 -999 347 13.8 101730 90
2006-05-10 13:54 51°15.818 2°53.282 -999 341 13.8 101730 90
2006-05-10 13:55 51°15.619 2°53.399 -999 345 13.9 101730 90
2006-05-10 13:56 51°15.423 2°53.518 -999 344 13.9 101730 90
2006-05-10 13:57 51°15.238 2°53.634 -999 344 14 101730 90
2006-05-10 13:58 51°15.068 2°53.732 -999 342 14.1 101730 90
2006-05-10 13:59 51°14.904 2°53.827 -999 341 14.2 101730 90
2006-05-10 14:00 51°14.756 2°53.984 -999 333 14.2 101730 89
2006-05-10 14:01 51°14.645 2°54.232 -999 331 14.2 101720 88
2006-05-10 14:02 51°14.54 2°54.516 -999 335 14.1 101720 89
2006-05-10 14:03 51°14.437 2°54.798 -999 343 14.1 101720 89
2006-05-10 14:04 51°14.342 2°55.076 -999 341 14 101720 90
2006-05-10 14:05 51°14.231 2°55.301 -999 336 14.1 101720 90
2006-05-10 14:06 51°14.14 2°55.399 -999 43 14.2 101720 91
2006-05-10 14:07 51°14.071 2°55.492 -999 276 14.2 101720 91
2006-05-10 14:08 51°13.97 2°55.584 -999 336 14.4 101720 91
2006-05-10 14:09 51°13.84 2°55.638 -999 6 14.5 101720 90
2006-05-10 14:10 51°13.752 2°55.694 -999 296 14.6 101720 91
2006-05-10 14:11 51°13.699 2°55.793 -999 257 14.8 101720 90
2006-05-10 14:12 51°13.662 2°55.882 -999 274 14.9 101710 89
2006-05-10 14:13 51°13.635 2°55.956 -999 269 15.1 101720 87
2006-05-10 14:14 51°13.614 2°56.023 -999 282 15.3 101720 85
2006-05-10 14:15 51°13.605 2°56.077 -999 271 15.6 101710 83
2006-05-10 14:16 51°13.601 2°56.096 -999 239 15.9 101710 81
2006-05-10 14:17 51°13.601 2°56.099 -999 277 16.1 101710 78
2006-05-10 14:18 51°13.602 2°56.1 -999 238 16.4 101710 77
2006-05-10 14:19 51°13.602 2°56.1 -999 237 16.5 101710 74
2006-05-10 14:20 51°13.602 2°56.098 -999 213 16.6 101710 73
2006-05-10 14:21 51°13.602 2°56.099 -999 221 16.6 101710 71